Regional Weather Roundup
Issued by NWS Spokane, WA

Home | Current Version | Previous Version | Text Only | Print | Product List | Glossary On
Versions: 1 2 3 4 5 6 7 8 9 10 11 12 13 14 15 16 17 18 19 20 21 22 23 24 25 26 27 28 29 30 31 32 33 34 35 36 37 38 39 40 41 42 43 44 45 46 47 48 49 50
000
NZUS01 KOTX 280925
RWROTX

Eastern Washington/Northern Idaho Roundup
National Weather Service, Spokane WA
200 AM PDT FRI JUL 28 2017

Note: "fair" indicated few or no clouds below 12,000 feet with no
significant weather and/or obstructions to visibility.

...Northeast Washington and Northern Idaho Panhandle...

CITY           SKY/WX    TMP DP  RH WIND       PRES   REMARKS
Spokane Intl   CLEAR     67  42  40 S5        29.99R
Spokane Downto CLEAR     64  44  48 NE3       29.98R
Coeur d Alene  CLEAR     62  47  57 CALM      30.01R
Deer Park      CLEAR     65  39  38 E6        29.98R
Sandpoint      CLEAR     54  43  66 CALM      29.99R
Bonners Ferry  FAIR      66  43  42 SE3       29.98R

...Southeast Washington and southern Idaho Panhandle...

CITY           SKY/WX    TMP DP  RH WIND       PRES   REMARKS
Walla Walla    CLEAR     71  44  37 S9        29.97S
Pullman/Moscow CLEAR     56  39  53 CALM      30.03S
Lewiston       CLEAR     71  40  32 CALM      29.96R
Lowell           N/A     64  56  75 CALM      30.01R
Grangeville    FAIR      59  41  51 S3        30.06S

...Columbia Basin...

CITY           SKY/WX    TMP DP  RH WIND       PRES   REMARKS
Ephrata        CLEAR     72  38  29 NW10      29.92S
Moses Lake     CLEAR     64  45  49 S3        29.93R
Pasco          CLEAR     73  50  44 SE7       29.93R
Richland       SUNNY     67  51  56 S3        29.92R
Hermiston      CLEAR     70  50  49 W5        29.95R
Pendleton      CLEAR     62  38  40 NW5       29.98S

...East Slopes Cascades...

CITY           SKY/WX    TMP DP  RH WIND       PRES   REMARKS
The Dalles     CLEAR     69  54  58 NW17      29.97S
Yakima         CLEAR     67  47  48 NW7       29.96F
Ellensburg     CLEAR     63  41  44 NW23G31   29.98S
Stampede Pass  MOCLDY    48  48 100 SW8       30.12S FOG
Wenatchee      CLEAR     69  42  37 NW12      29.95R
Omak           CLEAR     67  43  41 NW8       29.92R
Chelan           N/A     66  46  48 MISG        N/A
Sunnyside        N/A     53  49  87 N3        29.94S

...Southern British Columbia...

CITY           SKY/WX    TMP DP  RH WIND       PRES   REMARKS
Penticton      MOCLDY    59  37  44 CALM      29.97R
Cranbrook      PTCLDY    61  43  51 S2        29.99R
Osoyoos          N/A     75  37  25 NW7         N/A
Creston          N/A     72  45  37 E9          N/A

...Western Montana...

CITY           SKY/WX    TMP DP  RH WIND       PRES   REMARKS
Kalispell      SUNNY     54  47  77 NE6       30.01R
Libby            N/A     57  45  62 CALM      30.00R
Missoula       CLEAR     68  51  54 E7        30.06R

...Neighboring Cities...

CITY           SKY/WX    TMP DP  RH WIND       PRES   REMARKS
Seattle        PTCLDY    56  53  90 NW3       30.10S
Portland       CLEAR     59  52  77 N5        30.08S
Boise          CLEAR     73  43  33 E10       29.99S
Great Falls    CLEAR     64  41  42 SW9       30.01R
Calgary        MOCLDY    59  50  72 NW10G17   30.05R



USA.gov is the U.S. government's official web portal to all federal, state and local government web resources and services.